Location: Glencliff
(36.1226°N, 86.7183°W)
Time: 16:43:14
(UTC+00:00)

Cosmos 1825 - Pass Details

Date: 25 August 2019
Orbit: 503 x 510 km, 82.5° (Epoch: 15 October)

Event Time Altitude Azimuth Distance (km) Brightness Sun altitude
Rises 09:07:10 0° 2° (N) 2,625 6.3 -23.9°
Reaches altitude 10° 09:09:25 10° 11° (N) 1,735 5.4 -23.5°
Maximum altitude 09:12:58 37° 80° (E) 807 3.6 -22.9°
Drops below altitude 10° 09:16:29 10° 148° (SSE) 1,721 4.8 -22.3°
Enters shadow 09:16:31 10° 149° (SSE) 1,736 4.8 -22.3°
